Time,TemperatureF,DewpointF,PressureIn,WindDirection,WindDirectionDegrees,WindSpeedMPH,WindSpeedGustMPH,Humidity,HourlyPrecipIn,Conditions,Clouds,dailyrainin,SoftwareType,DateUTC
2013-07-10 00:04:00,84.6,57.0,-100.00,NW,316,0.0,1.0,40,0.00,,,0.00,,2013-07-10 05:04:00,
2013-07-10 00:09:00,84.6,56.0,-100.00,NW,313,0.0,1.0,38,0.00,,,0.00,,2013-07-10 05:09:00,
2013-07-10 00:14:00,84.6,56.0,-100.00,ENE,74,0.0,1.0,39,0.00,,,0.00,,2013-07-10 05:14:00,
2013-07-10 00:19:00,84.5,55.0,-100.00,NW,316,0.0,1.0,37,0.00,,,0.00,,2013-07-10 05:19:00,
2013-07-10 00:24:00,84.4,58.0,-100.00,North,355,0.0,1.0,41,0.00,,,0.00,,2013-07-10 05:24:00,
2013-07-10 00:29:00,84.4,59.0,-100.00,SSE,158,0.0,1.0,44,0.00,,,0.00,,2013-07-10 05:29:00,
2013-07-10 00:34:00,84.3,59.0,-100.00,NW,313,0.0,1.0,44,0.00,,,0.00,,2013-07-10 05:34:00,
2013-07-10 00:39:00,84.3,60.0,-100.00,East,79,0.0,1.0,45,0.00,,,0.00,,2013-07-10 05:39:00,
2013-07-10 00:44:00,84.1,62.0,-100.00,WSW,237,0.0,1.0,48,0.00,,,0.00,,2013-07-10 05:44:00,
2013-07-10 00:49:00,84.1,62.0,-100.00,SSW,195,0.0,1.0,48,0.00,,,0.00,,2013-07-10 05:49:00,
2013-07-10 00:54:00,84.0,62.0,-100.00,ENE,71,0.0,1.0,49,0.00,,,0.00,,2013-07-10 05:54:00,
2013-07-10 00:59:00,82.9,62.0,-100.00,ENE,69,0.0,1.0,50,0.00,,,0.00,,2013-07-10 05:59:00,
2013-07-10 01:09:00,82.7,60.0,-100.00,West,271,0.0,1.0,48,0.00,,,0.00,,2013-07-10 06:09:00,
2013-07-10 01:14:00,82.6,62.0,-100.00,NE,43,0.0,1.0,50,0.00,,,0.00,,2013-07-10 06:14:00,
2013-07-10 01:19:00,82.5,61.0,-100.00,NNE,26,0.0,0.0,50,0.00,,,0.00,,2013-07-10 06:19:00,
2013-07-10 01:24:00,82.5,62.0,-100.00,West,274,0.0,1.0,51,0.00,,,0.00,,2013-07-10 06:24:00,
2013-07-10 01:29:00,82.3,61.0,-100.00,SW,229,0.0,1.0,50,0.00,,,0.00,,2013-07-10 06:29:00,
2013-07-10 01:34:00,82.3,62.0,-100.00,SSE,153,0.0,1.0,52,0.00,,,0.00,,2013-07-10 06:34:00,
2013-07-10 01:39:00,82.2,62.0,-100.00,North,355,0.0,1.0,51,0.00,,,0.00,,2013-07-10 06:39:00,
2013-07-10 01:44:00,82.1,62.0,-100.00,West,279,0.0,0.0,52,0.00,,,0.00,,2013-07-10 06:44:00,
2013-07-10 01:49:00,82.1,63.0,-100.00,West,271,0.0,0.0,53,0.00,,,0.00,,2013-07-10 06:49:00,
2013-07-10 01:54:00,82.0,64.0,-100.00,NE,40,0.0,0.0,55,0.00,,,0.00,,2013-07-10 06:54:00,
2013-07-10 01:59:00,82.0,64.0,-100.00,NE,40,0.0,0.0,56,0.00,,,0.00,,2013-07-10 06:59:00,
2013-07-10 02:04:00,80.8,64.0,-100.00,NNE,32,0.0,0.0,57,0.00,,,0.00,,2013-07-10 07:04:00,
2013-07-10 02:09:00,80.7,64.0,-100.00,ESE,119,0.0,1.0,57,0.00,,,0.00,,2013-07-10 07:09:00,
2013-07-10 02:14:00,80.6,65.0,-100.00,NE,35,0.0,1.0,60,0.00,,,0.00,,2013-07-10 07:14:00,
2013-07-10 02:19:00,80.6,66.0,-100.00,NNE,18,0.0,1.0,62,0.00,,,0.00,,2013-07-10 07:19:00,
2013-07-10 02:24:00,80.5,65.0,-100.00,North,355,0.0,1.0,61,0.00,,,0.00,,2013-07-10 07:24:00,
2013-07-10 02:29:00,80.5,66.0,-100.00,North,355,0.0,1.0,63,0.00,,,0.00,,2013-07-10 07:29:00,
2013-07-10 02:34:00,80.4,66.0,-100.00,North,355,0.0,1.0,62,0.00,,,0.00,,2013-07-10 07:34:00,
2013-07-10 02:39:00,80.3,66.0,-100.00,North,355,0.0,0.0,64,0.00,,,0.00,,2013-07-10 07:39:00,
2013-07-10 02:44:00,80.3,67.0,-100.00,North,355,0.0,0.0,65,0.00,,,0.00,,2013-07-10 07:44:00,
2013-07-10 02:49:00,80.1,68.0,-100.00,North,355,0.0,0.0,67,0.00,,,0.00,,2013-07-10 07:49:00,
2013-07-10 02:54:00,80.1,68.0,-100.00,NE,40,0.0,0.0,67,0.00,,,0.00,,2013-07-10 07:54:00,
2013-07-10 02:59:00,80.1,68.0,-100.00,NE,40,0.0,0.0,68,0.00,,,0.00,,2013-07-10 07:59:00,
2013-07-10 03:04:00,80.0,68.0,-100.00,NE,40,0.0,0.0,69,0.00,,,0.00,,2013-07-10 08:04:00,
2013-07-10 03:14:00,78.8,67.0,-100.00,NE,40,0.0,1.0,69,0.00,,,0.00,,2013-07-10 08:14:00,
2013-07-10 03:19:00,78.7,65.0,-100.00,NE,40,0.0,1.0,65,0.00,,,0.00,,2013-07-10 08:19:00,
2013-07-10 03:24:00,78.6,65.0,-100.00,NE,40,0.0,1.0,65,0.00,,,0.00,,2013-07-10 08:24:00,
2013-07-10 03:29:00,78.5,68.0,-100.00,NE,40,0.0,1.0,71,0.00,,,0.00,,2013-07-10 08:29:00,
2013-07-10 03:34:00,78.5,67.0,-100.00,NE,40,0.0,0.0,69,0.00,,,0.00,,2013-07-10 08:34:00,
2013-07-10 03:39:00,78.4,69.0,-100.00,NE,40,0.0,0.0,75,0.00,,,0.00,,2013-07-10 08:39:00,
2013-07-10 03:44:00,78.4,66.0,-100.00,NE,40,0.0,0.0,68,0.00,,,0.00,,2013-07-10 08:44:00,
2013-07-10 03:49:00,78.3,65.0,-100.00,NE,40,0.0,0.0,65,0.00,,,0.00,,2013-07-10 08:49:00,
2013-07-10 03:54:00,78.4,68.0,-100.00,NE,40,0.0,0.0,71,0.00,,,0.00,,2013-07-10 08:54:00,
2013-07-10 04:04:00,78.1,69.0,-100.00,NE,40,0.0,0.0,74,0.00,,,0.00,,2013-07-10 09:04:00,
2013-07-10 04:09:00,78.1,69.0,-100.00,North,355,0.0,1.0,75,0.00,,,0.00,,2013-07-10 09:09:00,
2013-07-10 04:14:00,78.1,69.0,-100.00,North,355,0.0,1.0,76,0.00,,,0.00,,2013-07-10 09:14:00,
2013-07-10 04:19:00,78.0,69.0,-100.00,North,355,0.0,1.0,74,0.00,,,0.00,,2013-07-10 09:19:00,
2013-07-10 04:24:00,78.0,69.0,-100.00,North,355,0.0,0.0,76,0.00,,,0.00,,2013-07-10 09:24:00,
2013-07-10 04:29:00,78.0,70.0,-100.00,North,355,0.0,0.0,77,0.00,,,0.00,,2013-07-10 09:29:00,
2013-07-10 04:34:00,76.9,67.0,-100.00,North,355,0.0,1.0,74,0.00,,,0.00,,2013-07-10 09:34:00,
2013-07-10 04:39:00,76.9,68.0,-100.00,North,355,0.0,1.0,75,0.00,,,0.00,,2013-07-10 09:39:00,
2013-07-10 04:44:00,76.8,69.0,-100.00,North,355,0.0,1.0,79,0.00,,,0.00,,2013-07-10 09:44:00,
2013-07-10 04:49:00,76.8,70.0,-100.00,North,355,0.0,1.0,80,0.00,,,0.00,,2013-07-10 09:49:00,
2013-07-10 04:54:00,76.8,69.0,-100.00,North,355,0.0,1.0,79,0.00,,,0.00,,2013-07-10 09:54:00,
2013-07-10 04:59:00,76.8,69.0,-100.00,North,355,0.0,0.0,78,0.00,,,0.00,,2013-07-10 09:59:00,
2013-07-10 05:09:00,76.6,67.0,-100.00,North,355,0.0,0.0,73,0.00,,,0.00,,2013-07-10 10:09:00,
2013-07-10 05:14:00,76.6,68.0,-100.00,North,355,0.0,0.0,75,0.00,,,0.00,,2013-07-10 10:14:00,
2013-07-10 05:19:00,76.5,67.0,-100.00,North,355,0.0,0.0,75,0.00,,,0.00,,2013-07-10 10:19:00,
2013-07-10 05:24:00,76.4,68.0,-100.00,North,355,0.0,1.0,76,0.00,,,0.00,,2013-07-10 10:24:00,
2013-07-10 05:29:00,76.3,67.0,-100.00,North,355,0.0,1.0,74,0.00,,,0.00,,2013-07-10 10:29:00,
2013-07-10 05:34:00,76.3,68.0,-100.00,North,355,0.0,0.0,76,0.00,,,0.00,,2013-07-10 10:34:00,
2013-07-10 05:39:00,76.3,67.0,-100.00,North,355,0.0,0.0,75,0.00,,,0.00,,2013-07-10 10:39:00,
2013-07-10 05:44:00,76.3,67.0,-100.00,North,355,0.0,0.0,74,0.00,,,0.00,,2013-07-10 10:44:00,
2013-07-10 05:49:00,76.3,68.0,-100.00,North,355,0.0,0.0,76,0.00,,,0.00,,2013-07-10 10:49:00,
2013-07-10 05:54:00,76.3,65.0,-100.00,North,355,0.0,0.0,70,0.00,,,0.00,,2013-07-10 10:54:00,
2013-07-10 05:59:00,76.2,67.0,-100.00,North,355,0.0,0.0,75,0.00,,,0.00,,2013-07-10 10:59:00,
2013-07-10 06:04:00,76.1,67.0,-100.00,North,355,0.0,0.0,74,0.00,,,0.00,,2013-07-10 11:04:00,
2013-07-10 06:09:00,76.0,68.0,-100.00,North,355,0.0,0.0,77,0.00,,,0.00,,2013-07-10 11:09:00,
2013-07-10 06:14:00,76.0,67.0,-100.00,North,355,0.0,0.0,76,0.00,,,0.00,,2013-07-10 11:14:00,
2013-07-10 06:19:00,75.9,67.0,-100.00,North,355,0.0,0.0,75,0.00,,,0.00,,2013-07-10 11:19:00,
2013-07-10 06:24:00,75.8,67.0,-100.00,North,355,0.0,0.0,75,0.00,,,0.00,,2013-07-10 11:24:00,
2013-07-10 06:29:00,75.8,67.0,-100.00,North,355,0.0,0.0,76,0.00,,,0.00,,2013-07-10 11:29:00,
2013-07-10 06:34:00,75.7,66.0,-100.00,North,355,0.0,0.0,72,0.00,,,0.00,,2013-07-10 11:34:00,
2013-07-10 06:39:00,75.6,66.0,-100.00,North,355,0.0,0.0,73,0.00,,,0.00,,2013-07-10 11:39:00,
2013-07-10 06:44:00,75.6,67.0,-100.00,North,355,0.0,0.0,75,0.00,,,0.00,,2013-07-10 11:44:00,
2013-07-10 06:49:00,75.7,67.0,-100.00,North,355,0.0,0.0,77,0.00,,,0.00,,2013-07-10 11:49:00,
2013-07-10 06:54:00,75.7,68.0,-100.00,North,355,0.0,0.0,78,0.00,,,0.00,,2013-07-10 11:54:00,
2013-07-10 06:59:00,75.7,67.0,-100.00,NW,310,0.0,0.0,77,0.00,,,0.00,,2013-07-10 11:59:00,
2013-07-10 07:04:00,75.8,68.0,-100.00,NW,310,0.0,0.0,77,0.00,,,0.00,,2013-07-10 12:04:00,
2013-07-10 07:09:00,75.8,67.0,-100.00,NW,310,0.0,0.0,75,0.00,,,0.00,,2013-07-10 12:09:00,
2013-07-10 07:14:00,75.9,67.0,-100.00,NW,310,0.0,0.0,76,0.00,,,0.00,,2013-07-10 12:14:00,
2013-07-10 07:24:00,76.1,64.0,-100.00,NW,310,0.0,1.0,68,0.00,,,0.00,,2013-07-10 12:24:00,
2013-07-10 07:29:00,76.3,66.0,-100.00,NW,310,0.0,1.0,71,0.00,,,0.00,,2013-07-10 12:29:00,
2013-07-10 07:34:00,76.3,69.0,-100.00,NW,310,0.0,1.0,78,0.00,,,0.00,,2013-07-10 12:34:00,
2013-07-10 07:39:00,76.6,66.0,-100.00,NW,310,0.0,0.0,70,0.00,,,0.00,,2013-07-10 12:39:00,
2013-07-10 07:44:00,76.8,66.0,-100.00,NW,310,0.0,1.0,70,0.00,,,0.00,,2013-07-10 12:44:00,
2013-07-10 07:49:00,78.0,66.0,-100.00,NW,310,0.0,1.0,68,0.00,,,0.00,,2013-07-10 12:49:00,
2013-07-10 07:54:00,78.1,66.0,-100.00,NNW,333,0.0,1.0,67,0.00,,,0.00,,2013-07-10 12:54:00,
2013-07-10 07:59:00,78.5,64.0,-100.00,NNW,333,0.0,1.0,63,0.00,,,0.00,,2013-07-10 12:59:00,
2013-07-10 08:04:00,78.5,63.0,-100.00,NW,310,0.0,1.0,61,0.00,,,0.00,,2013-07-10 13:04:00,
2013-07-10 08:09:00,78.5,63.0,-100.00,NW,310,0.0,1.0,61,0.00,,,0.00,,2013-07-10 13:09:00,
2013-07-10 08:14:00,80.0,64.0,-100.00,NW,324,0.0,1.0,60,0.00,,,0.00,,2013-07-10 13:14:00,
2013-07-10 08:19:00,80.0,64.0,-100.00,NW,324,0.0,1.0,60,0.00,,,0.00,,2013-07-10 13:19:00,
2013-07-10 08:24:00,80.0,64.0,-100.00,NW,324,0.0,1.0,60,0.00,,,0.00,,2013-07-10 13:24:00,
2013-07-10 08:29:00,80.0,64.0,-100.00,NW,324,0.0,0.0,60,0.00,,,0.00,,2013-07-10 13:29:00,
2013-07-10 08:34:00,80.0,-99.9,-100.00,North,0,0.0,0.0,0,0.00,,,0.00,,2013-07-10 13:34:00,
2013-07-10 08:49:00,82.6,71.0,-100.00,West,274,0.0,1.0,70,0.00,,,0.00,,2013-07-10 13:49:00,
2013-07-10 08:54:00,82.6,71.0,-100.00,West,274,0.0,1.0,70,0.00,,,0.00,,2013-07-10 13:54:00,
2013-07-10 08:59:00,82.6,71.0,-100.00,West,274,0.0,0.0,70,0.00,,,0.00,,2013-07-10 13:59:00,
2013-07-10 09:04:00,82.6,71.0,-100.00,West,274,0.0,0.0,70,0.00,,,0.00,,2013-07-10 14:04:00,
2013-07-10 09:19:00,87.1,59.0,-100.00,North,355,0.0,1.0,40,0.00,,,0.00,,2013-07-10 14:19:00,
2013-07-10 09:29:00,85.8,73.0,-100.00,NNW,344,0.0,1.0,66,0.00,,,0.00,,2013-07-10 14:29:00,
2013-07-10 09:34:00,87.1,56.0,-100.00,SW,220,0.0,1.0,35,0.00,,,0.00,,2013-07-10 14:34:00,
2013-07-10 09:39:00,87.3,51.0,-100.00,SW,220,0.0,1.0,29,0.00,,,0.00,,2013-07-10 14:39:00,
2013-07-10 09:44:00,87.7,66.0,-100.00,SW,220,0.0,0.0,50,0.00,,,0.00,,2013-07-10 14:44:00,
2013-07-10 09:49:00,89.8,48.0,-100.00,SW,220,0.0,0.0,24,0.00,,,0.00,,2013-07-10 14:49:00,
2013-07-10 09:59:00,89.1,31.0,-100.00,SW,220,0.0,0.0,13,0.00,,,0.00,,2013-07-10 14:59:00,
2013-07-10 10:04:00,89.8,30.0,-100.00,SW,220,0.0,0.0,12,0.00,,,0.00,,2013-07-10 15:04:00,
2013-07-10 10:09:00,91.0,29.0,-100.00,SW,220,0.0,0.0,11,0.00,,,0.00,,2013-07-10 15:09:00,
2013-07-10 10:14:00,89.9,28.0,-100.00,SW,220,0.0,0.0,11,0.00,,,0.00,,2013-07-10 15:14:00,
2013-07-10 10:19:00,91.3,29.0,-100.00,SW,220,0.0,0.0,11,0.00,,,0.00,,2013-07-10 15:19:00,
2013-07-10 10:24:00,91.6,27.0,-100.00,SW,220,0.0,0.0,10,0.00,,,0.00,,2013-07-10 15:24:00,
2013-07-10 10:29:00,91.5,27.0,-100.00,SW,220,0.0,0.0,10,0.00,,,0.00,,2013-07-10 15:29:00,
2013-07-10 10:34:00,93.0,25.0,-100.00,SW,220,0.0,0.0,9,0.00,,,0.00,,2013-07-10 15:34:00,
2013-07-10 10:39:00,91.8,24.0,-100.00,SW,220,0.0,0.0,9,0.00,,,0.00,,2013-07-10 15:39:00,
2013-07-10 10:44:00,93.2,23.0,-100.00,SW,220,0.0,0.0,8,0.00,,,0.00,,2013-07-10 15:44:00,
2013-07-10 10:49:00,93.7,20.0,-100.00,SW,220,0.0,0.0,7,0.00,,,0.00,,2013-07-10 15:49:00,
2013-07-10 10:54:00,94.1,20.0,-100.00,SW,220,0.0,0.0,7,0.00,,,0.00,,2013-07-10 15:54:00,
2013-07-10 10:59:00,94.3,17.0,-100.00,SW,220,0.0,0.0,6,0.00,,,0.00,,2013-07-10 15:59:00,
2013-07-10 11:04:00,94.0,17.0,-100.00,SW,220,0.0,0.0,6,0.00,,,0.00,,2013-07-10 16:04:00,
2013-07-10 11:09:00,94.2,17.0,-100.00,SW,220,0.0,0.0,6,0.00,,,0.00,,2013-07-10 16:09:00,
2013-07-10 11:14:00,94.5,17.0,-100.00,SW,220,0.0,0.0,6,0.00,,,0.00,,2013-07-10 16:14:00,
2013-07-10 11:19:00,94.5,13.0,-100.00,SW,220,0.0,0.0,5,0.00,,,0.00,,2013-07-10 16:19:00,
2013-07-10 11:24:00,96.1,14.0,-100.00,SW,220,0.0,0.0,5,0.00,,,0.00,,2013-07-10 16:24:00,
2013-07-10 11:34:00,96.1,14.0,-100.00,SW,220,0.0,0.0,5,0.00,,,0.00,,2013-07-10 16:34:00,
2013-07-10 11:39:00,96.2,9.0,-100.00,SW,220,0.0,0.0,4,0.00,,,0.00,,2013-07-10 16:39:00,
2013-07-10 11:44:00,96.4,9.0,-100.00,SW,220,0.0,0.0,4,0.00,,,0.00,,2013-07-10 16:44:00,
2013-07-10 11:49:00,96.3,9.0,-100.00,SW,220,0.0,0.0,4,0.00,,,0.00,,2013-07-10 16:49:00,
2013-07-10 11:54:00,98.4,4.0,-100.00,SW,220,0.0,0.0,3,0.00,,,0.00,,2013-07-10 16:54:00,
2013-07-10 11:59:00,98.0,4.0,-100.00,SW,220,0.0,0.0,3,0.00,,,0.00,,2013-07-10 16:59:00,
2013-07-10 12:04:00,98.5,-4.0,-100.00,SW,220,0.0,0.0,2,0.00,,,0.00,,2013-07-10 17:04:00,
2013-07-10 12:09:00,98.4,-4.0,-100.00,SW,220,0.0,0.0,2,0.00,,,0.00,,2013-07-10 17:09:00,
2013-07-10 12:14:00,98.1,4.0,-100.00,SW,220,0.0,0.0,3,0.00,,,0.00,,2013-07-10 17:14:00,
2013-07-10 12:19:00,98.5,-4.0,-100.00,SW,220,0.0,0.0,2,0.00,,,0.00,,2013-07-10 17:19:00,
2013-07-10 12:24:00,100.0,-3.0,-100.00,SW,220,0.0,0.0,2,0.00,,,0.00,,2013-07-10 17:24:00,
2013-07-10 12:29:00,100.2,-2.0,-100.00,SW,220,0.0,0.0,2,0.00,,,0.00,,2013-07-10 17:29:00,
2013-07-10 12:34:00,98.8,-3.0,-100.00,SW,220,0.0,0.0,2,0.00,,,0.00,,2013-07-10 17:34:00,
2013-07-10 12:44:00,100.3,-16.0,-100.00,SW,220,0.0,0.0,1,0.00,,,0.00,,2013-07-10 17:44:00,
2013-07-10 12:49:00,100.5,-16.0,-100.00,SW,220,0.0,0.0,1,0.00,,,0.00,,2013-07-10 17:49:00,
2013-07-10 12:54:00,100.5,-99.9,-100.00,SW,220,0.0,0.0,0,0.00,,,0.00,,2013-07-10 17:54:00,
2013-07-10 12:59:00,100.1,-17.0,-100.00,SW,220,0.0,0.0,1,0.00,,,0.00,,2013-07-10 17:59:00,
2013-07-10 13:04:00,100.6,-99.9,-100.00,SW,220,0.0,0.0,0,0.00,,,0.00,,2013-07-10 18:04:00,
2013-07-10 13:09:00,100.1,-17.0,-100.00,SW,220,0.0,0.0,1,0.00,,,0.00,,2013-07-10 18:09:00,
2013-07-10 13:14:00,98.8,-17.0,-100.00,SW,220,0.0,0.0,1,0.00,,,0.00,,2013-07-10 18:14:00,
2013-07-10 13:19:00,100.5,-99.9,-100.00,SW,220,0.0,0.0,0,0.00,,,0.00,,2013-07-10 18:19:00,
2013-07-10 13:24:00,102.0,-99.9,-100.00,SW,220,0.0,0.0,0,0.00,,,0.00,,2013-07-10 18:24:00,
2013-07-10 13:29:00,102.5,-99.9,-100.00,SW,220,0.0,0.0,0,0.00,,,0.00,,2013-07-10 18:29:00,
2013-07-10 13:39:00,102.8,-99.9,-100.00,SW,220,0.0,0.0,0,0.00,,,0.00,,2013-07-10 18:39:00,
2013-07-10 13:44:00,102.3,-99.9,-100.00,SW,220,0.0,0.0,0,0.00,,,0.00,,2013-07-10 18:44:00,
2013-07-10 13:53:00,102.1,-99.9,-100.00,SW,220,0.0,0.0,0,0.00,,,0.00,,2013-07-10 18:53:00,
2013-07-10 14:05:00,102.1,-99.9,-100.00,SW,220,0.0,0.0,0,0.00,,,0.00,,2013-07-10 19:05:00,
2013-07-10 14:10:00,103.4,-99.9,-100.00,SW,220,0.0,0.0,0,0.00,,,0.00,,2013-07-10 19:10:00,
2013-07-10 14:15:00,102.6,-99.9,-100.00,SW,220,0.0,0.0,0,0.00,,,0.00,,2013-07-10 19:15:00,
2013-07-10 14:20:00,103.4,-99.9,-100.00,SW,220,0.0,0.0,0,0.00,,,0.00,,2013-07-10 19:20:00,
2013-07-10 14:25:00,105.4,-99.9,-100.00,SW,220,0.0,0.0,0,0.00,,,0.00,,2013-07-10 19:25:00,
2013-07-10 14:30:00,100.7,-99.9,-100.00,SW,220,0.0,0.0,0,0.00,,,0.00,,2013-07-10 19:30:00,
2013-07-10 14:35:00,100.4,-99.9,-100.00,SW,220,0.0,0.0,0,0.00,,,0.00,,2013-07-10 19:35:00,
2013-07-10 14:40:00,103.3,-99.9,-100.00,SW,220,0.0,0.0,0,0.00,,,0.00,,2013-07-10 19:40:00,
2013-07-10 14:45:00,105.5,-99.9,-100.00,SW,220,0.0,0.0,0,0.00,,,0.00,,2013-07-10 19:45:00,
2013-07-10 14:50:00,105.8,-99.9,-100.00,SW,220,0.0,0.0,0,0.00,,,0.00,,2013-07-10 19:50:00,
2013-07-10 14:55:00,102.5,-99.9,-100.00,SW,220,0.0,0.0,0,0.00,,,0.00,,2013-07-10 19:55:00,
2013-07-10 15:00:00,100.4,-99.9,-100.00,SW,220,0.0,0.0,0,0.00,,,0.00,,2013-07-10 20:00:00,
2013-07-10 15:05:00,100.1,-99.9,-100.00,SW,220,0.0,0.0,0,0.00,,,0.00,,2013-07-10 20:05:00,
2013-07-10 15:10:00,102.1,-99.9,-100.00,SW,220,0.0,0.0,0,0.00,,,0.00,,2013-07-10 20:10:00,
2013-07-10 15:15:00,100.6,-99.9,-100.00,SW,220,0.0,0.0,0,0.00,,,0.00,,2013-07-10 20:15:00,
2013-07-10 15:20:00,102.0,-99.9,-100.00,SW,220,0.0,0.0,0,0.00,,,0.00,,2013-07-10 20:20:00,
2013-07-10 15:25:00,105.4,-99.9,-100.00,SW,220,0.0,0.0,0,0.00,,,0.00,,2013-07-10 20:25:00,
2013-07-10 15:30:00,100.9,-99.9,-100.00,SW,220,0.0,0.0,0,0.00,,,0.00,,2013-07-10 20:30:00,
2013-07-10 15:35:00,98.8,-99.9,-100.00,SW,220,0.0,0.0,0,0.00,,,0.00,,2013-07-10 20:35:00,
2013-07-10 15:40:00,98.2,-99.9,-100.00,SW,220,0.0,0.0,0,0.00,,,0.00,,2013-07-10 20:40:00,
2013-07-10 15:45:00,98.1,-99.9,-100.00,SW,220,0.0,0.0,0,0.00,,,0.00,,2013-07-10 20:45:00,
2013-07-10 15:50:00,98.2,-99.9,-100.00,SW,220,0.0,0.0,0,0.00,,,0.00,,2013-07-10 20:50:00,
2013-07-10 16:00:00,98.1,-99.9,-100.00,SW,220,0.0,0.0,0,0.00,,,0.00,,2013-07-10 21:00:00,
2013-07-10 16:05:00,98.7,-99.9,-100.00,SW,220,0.0,0.0,0,0.00,,,0.00,,2013-07-10 21:05:00,
2013-07-10 16:10:00,100.6,-99.9,-100.00,SW,220,0.0,0.0,0,0.00,,,0.00,,2013-07-10 21:10:00,
2013-07-10 16:15:00,98.7,-99.9,-100.00,SW,220,0.0,0.0,0,0.00,,,0.00,,2013-07-10 21:15:00,
2013-07-10 16:20:00,98.4,-99.9,-100.00,SW,220,0.0,0.0,0,0.00,,,0.00,,2013-07-10 21:20:00,
2013-07-10 16:25:00,100.8,-99.9,-100.00,SW,220,0.0,0.0,0,0.00,,,0.00,,2013-07-10 21:25:00,
2013-07-10 16:30:00,100.0,-99.9,-100.00,SW,220,0.0,0.0,0,0.00,,,0.00,,2013-07-10 21:30:00,
2013-07-10 16:35:00,98.3,-99.9,-100.00,SW,220,0.0,0.0,0,0.00,,,0.00,,2013-07-10 21:35:00,
2013-07-10 16:40:00,98.3,-99.9,-100.00,SW,220,0.0,0.0,0,0.00,,,0.00,,2013-07-10 21:40:00,
2013-07-10 16:45:00,98.1,-99.9,-100.00,SW,220,0.0,0.0,0,0.00,,,0.00,,2013-07-10 21:45:00,
2013-07-10 16:50:00,96.6,-99.9,-100.00,SW,220,0.0,0.0,0,0.00,,,0.00,,2013-07-10 21:50:00,
2013-07-10 16:55:00,96.7,-99.9,-100.00,SW,220,0.0,0.0,0,0.00,,,0.00,,2013-07-10 21:55:00,
2013-07-10 17:00:00,98.1,-99.9,-100.00,SW,220,0.0,0.0,0,0.00,,,0.00,,2013-07-10 22:00:00,
2013-07-10 17:05:00,96.9,-99.9,-100.00,SW,220,0.0,0.0,0,0.00,,,0.00,,2013-07-10 22:05:00,
2013-07-10 17:10:00,98.1,-99.9,-100.00,SW,220,0.0,0.0,0,0.00,,,0.00,,2013-07-10 22:10:00,
2013-07-10 17:15:00,98.1,-99.9,-100.00,SW,220,0.0,0.0,0,0.00,,,0.00,,2013-07-10 22:15:00,
2013-07-10 17:20:00,98.7,-99.9,-100.00,SW,220,0.0,0.0,0,0.00,,,0.00,,2013-07-10 22:20:00,
2013-07-10 17:25:00,98.8,-99.9,-100.00,SW,220,0.0,0.0,0,0.00,,,0.00,,2013-07-10 22:25:00,
2013-07-10 17:30:00,98.5,-99.9,-100.00,SW,220,0.0,0.0,0,0.00,,,0.00,,2013-07-10 22:30:00,
2013-07-10 17:35:00,98.6,-99.9,-100.00,SW,220,0.0,0.0,0,0.00,,,0.00,,2013-07-10 22:35:00,
2013-07-10 17:40:00,100.0,-99.9,-100.00,SW,220,0.0,0.0,0,0.00,,,0.00,,2013-07-10 22:40:00,
2013-07-10 17:45:00,100.0,-99.9,-100.00,SW,220,0.0,0.0,0,0.00,,,0.00,,2013-07-10 22:45:00,
2013-07-10 17:50:00,98.2,-99.9,-100.00,SW,220,0.0,0.0,0,0.00,,,0.00,,2013-07-10 22:50:00,
2013-07-10 18:00:00,98.1,-99.9,-100.00,SW,220,0.0,0.0,0,0.00,,,0.00,,2013-07-10 23:00:00,
2013-07-10 18:05:00,98.2,-99.9,-100.00,SW,220,0.0,0.0,0,0.00,,,0.00,,2013-07-10 23:05:00,
2013-07-10 18:10:00,98.3,-99.9,-100.00,SW,220,0.0,0.0,0,0.00,,,0.00,,2013-07-10 23:10:00,
2013-07-10 18:15:00,100.0,-99.9,-100.00,SW,220,0.0,0.0,0,0.00,,,0.00,,2013-07-10 23:15:00,
2013-07-10 18:20:00,98.6,-99.9,-100.00,SW,220,0.0,0.0,0,0.00,,,0.00,,2013-07-10 23:20:00,
2013-07-10 18:25:00,98.4,-99.9,-100.00,SW,220,0.0,0.0,0,0.00,,,0.00,,2013-07-10 23:25:00,
2013-07-10 18:30:00,98.3,-99.9,-100.00,SW,220,0.0,0.0,0,0.00,,,0.00,,2013-07-10 23:30:00,
2013-07-10 18:35:00,98.6,-99.9,-100.00,SW,220,0.0,0.0,0,0.00,,,0.00,,2013-07-10 23:35:00,
2013-07-10 18:40:00,98.1,-99.9,-100.00,SW,220,0.0,0.0,0,0.00,,,0.00,,2013-07-10 23:40:00,
2013-07-10 18:45:00,98.5,-99.9,-100.00,SW,220,0.0,0.0,0,0.00,,,0.00,,2013-07-10 23:45:00,
2013-07-10 18:50:00,98.0,-99.9,-100.00,SW,220,0.0,0.0,0,0.00,,,0.00,,2013-07-10 23:50:00,
2013-07-10 18:55:00,98.4,-99.9,-100.00,SW,220,0.0,0.0,0,0.00,,,0.00,,2013-07-10 23:55:00,
2013-07-10 19:00:00,98.7,-99.9,-100.00,SW,220,0.0,0.0,0,0.00,,,0.00,,2013-07-11 00:00:00,
2013-07-10 19:05:00,98.6,-99.9,-100.00,SW,220,0.0,0.0,0,0.00,,,0.00,,2013-07-11 00:05:00,
2013-07-10 19:10:00,98.0,-18.0,-100.00,SW,220,0.0,0.0,1,0.00,,,0.00,,2013-07-11 00:10:00,
2013-07-10 19:15:00,96.6,-19.0,-100.00,SW,220,0.0,0.0,1,0.00,,,0.00,,2013-07-11 00:15:00,
2013-07-10 19:20:00,96.4,-19.0,-100.00,SW,220,0.0,0.0,1,0.00,,,0.00,,2013-07-11 00:20:00,
2013-07-10 19:25:00,96.2,-19.0,-100.00,SW,220,0.0,0.0,1,0.00,,,0.00,,2013-07-11 00:25:00,
2013-07-10 19:30:00,96.3,-19.0,-100.00,SW,220,0.0,0.0,1,0.00,,,0.00,,2013-07-11 00:30:00,
2013-07-10 19:35:00,96.4,-19.0,-100.00,SW,220,0.0,0.0,1,0.00,,,0.00,,2013-07-11 00:35:00,
2013-07-10 19:40:00,96.4,-19.0,-100.00,SW,220,0.0,0.0,1,0.00,,,0.00,,2013-07-11 00:40:00,
2013-07-10 19:45:00,96.3,-19.0,-100.00,SW,220,0.0,0.0,1,0.00,,,0.00,,2013-07-11 00:45:00,
2013-07-10 19:50:00,96.0,-19.0,-100.00,SW,220,0.0,0.0,1,0.00,,,0.00,,2013-07-11 00:50:00,
2013-07-10 19:55:00,94.6,-20.0,-100.00,SW,220,0.0,0.0,1,0.00,,,0.00,,2013-07-11 00:55:00,
2013-07-10 20:00:00,94.5,-20.0,-100.00,SW,220,0.0,0.0,1,0.00,,,0.00,,2013-07-11 01:00:00,
2013-07-10 20:05:00,94.3,-6.0,-100.00,SW,220,0.0,0.0,2,0.00,,,0.00,,2013-07-11 01:05:00,
2013-07-10 20:10:00,94.1,-6.0,-100.00,NW,310,0.0,0.0,2,0.00,,,0.00,,2013-07-11 01:10:00,
2013-07-10 20:15:00,93.9,-6.0,-100.00,NW,310,0.0,0.0,2,0.00,,,0.00,,2013-07-11 01:15:00,
2013-07-10 20:20:00,93.6,-7.0,-100.00,NW,310,0.0,0.0,2,0.00,,,0.00,,2013-07-11 01:20:00,
2013-07-10 20:25:00,93.2,1.0,-100.00,NW,310,0.0,0.0,3,0.00,,,0.00,,2013-07-11 01:25:00,
2013-07-10 20:30:00,93.0,0.0,-100.00,NW,310,0.0,0.0,3,0.00,,,0.00,,2013-07-11 01:30:00,
2013-07-10 20:35:00,91.7,6.0,-100.00,NW,310,0.0,0.0,4,0.00,,,0.00,,2013-07-11 01:35:00,
2013-07-10 20:40:00,91.5,6.0,-100.00,NW,310,0.0,0.0,4,0.00,,,0.00,,2013-07-11 01:40:00,
2013-07-10 20:45:00,91.3,6.0,-100.00,NW,310,0.0,0.0,4,0.00,,,0.00,,2013-07-11 01:45:00,
2013-07-10 20:50:00,91.0,5.0,-100.00,NW,310,0.0,0.0,4,0.00,,,0.00,,2013-07-11 01:50:00,
2013-07-10 20:55:00,89.9,5.0,-100.00,NW,310,0.0,0.0,4,0.00,,,0.00,,2013-07-11 01:55:00,
2013-07-10 21:00:00,89.7,4.0,-100.00,NW,310,0.0,0.0,4,0.00,,,0.00,,2013-07-11 02:00:00,
2013-07-10 21:05:00,89.4,9.0,-100.00,NW,310,0.0,0.0,5,0.00,,,0.00,,2013-07-11 02:05:00,
2013-07-10 21:15:00,87.5,8.0,-100.00,NW,310,0.0,0.0,5,0.00,,,0.00,,2013-07-11 02:15:00,
2013-07-10 21:20:00,87.2,8.0,-100.00,NW,310,0.0,0.0,5,0.00,,,0.00,,2013-07-11 02:20:00,
2013-07-10 21:25:00,87.1,8.0,-100.00,NW,310,0.0,0.0,5,0.00,,,0.00,,2013-07-11 02:25:00,
2013-07-10 21:30:00,85.7,11.0,-100.00,NW,310,0.0,0.0,6,0.00,,,0.00,,2013-07-11 02:30:00,
2013-07-10 21:35:00,85.7,11.0,-100.00,NW,310,0.0,0.0,6,0.00,,,0.00,,2013-07-11 02:35:00,
2013-07-10 21:40:00,85.7,11.0,-100.00,NW,310,0.0,0.0,6,0.00,,,0.00,,2013-07-11 02:40:00,
2013-07-10 21:45:00,85.7,11.0,-100.00,NW,310,0.0,0.0,6,0.00,,,0.00,,2013-07-11 02:45:00,
2013-07-10 21:50:00,85.7,11.0,-100.00,NW,310,0.0,0.0,6,0.00,,,0.00,,2013-07-11 02:50:00,
2013-07-10 22:15:00,84.1,16.0,-100.00,NW,310,0.0,0.0,8,0.00,,,0.00,,2013-07-11 03:15:00,
2013-07-10 22:20:00,84.1,16.0,-100.00,NW,310,0.0,0.0,8,0.00,,,0.00,,2013-07-11 03:20:00,
2013-07-10 22:25:00,84.2,16.0,-100.00,NW,310,0.0,0.0,8,0.00,,,0.00,,2013-07-11 03:25:00,
2013-07-10 22:30:00,84.3,16.0,-100.00,NW,310,0.0,0.0,8,0.00,,,0.00,,2013-07-11 03:30:00,
2013-07-10 22:35:00,84.3,16.0,-100.00,NW,310,0.0,0.0,8,0.00,,,0.00,,2013-07-11 03:35:00,
2013-07-10 22:40:00,84.1,19.0,-100.00,NW,310,0.0,0.0,9,0.00,,,0.00,,2013-07-11 03:40:00,
2013-07-10 22:50:00,85.0,22.0,-100.00,NW,310,0.0,0.0,10,0.00,,,0.00,,2013-07-11 03:50:00,
2013-07-10 22:55:00,85.1,24.0,-100.00,NW,310,0.0,0.0,11,0.00,,,0.00,,2013-07-11 03:55:00,
2013-07-10 23:00:00,85.2,24.0,-100.00,NW,310,0.0,0.0,11,0.00,,,0.00,,2013-07-11 04:00:00,
2013-07-10 23:05:00,85.3,26.0,-100.00,NW,310,0.0,1.0,12,0.00,,,0.00,,2013-07-11 04:05:00,
2013-07-10 23:10:00,85.3,28.0,-100.00,NW,310,0.0,1.0,13,0.00,,,0.00,,2013-07-11 04:10:00,
2013-07-10 23:15:00,85.3,28.0,-100.00,NW,310,0.0,1.0,13,0.00,,,0.00,,2013-07-11 04:15:00,
2013-07-10 23:20:00,85.3,28.0,-100.00,NW,310,0.0,1.0,13,0.00,,,0.00,,2013-07-11 04:20:00,
2013-07-10 23:25:00,85.2,30.0,-100.00,NW,310,0.0,1.0,14,0.00,,,0.00,,2013-07-11 04:25:00,
2013-07-10 23:30:00,85.1,30.0,-100.00,NW,310,0.0,0.0,14,0.00,,,0.00,,2013-07-11 04:30:00,
2013-07-10 23:35:00,85.0,30.0,-100.00,NW,310,0.0,1.0,14,0.00,,,0.00,,2013-07-11 04:35:00,
2013-07-10 23:40:00,85.0,30.0,-100.00,NW,310,0.0,1.0,14,0.00,,,0.00,,2013-07-11 04:40:00,
2013-07-10 23:45:00,84.9,32.0,-100.00,NW,310,0.0,1.0,15,0.00,,,0.00,,2013-07-11 04:45:00,
2013-07-10 23:50:00,84.8,32.0,-100.00,NW,310,0.0,1.0,15,0.00,,,0.00,,2013-07-11 04:50:00,
2013-07-10 23:55:00,84.8,32.0,-100.00,NW,310,0.0,0.0,15,0.00,,,0.00,,2013-07-11 04:55:00,